,,PA_Meas_PMT16A,,PR_Meas_QMR101_102,,RH_Meas_QMH101,,SR_Meas_QMS101,,TA_Meas_QMH101,,GenWind,,GenWind,
time,status,PA,status,PR,status,RH,status,SR,status,TA,status,DirAvg,status,SpdAvg,
2009-12-23, 00:00:04,VALID,917.914,VALID,0,VALID,87.1204,VALID,0,VALID,21.0649,VALID,156,VALID,1.72148,
2009-12-23, 00:01:04,VALID,917.945,VALID,0,VALID,86.8612,VALID,0,VALID,21.0844,VALID,169,VALID,1.7,
2009-12-23, 00:02:04,VALID,917.924,VALID,0,VALID,86.0226,VALID,0,VALID,21.1429,VALID,161,VALID,2.17031,
2009-12-23, 00:03:04,VALID,917.971,VALID,0,VALID,86.137,VALID,0,VALID,21.2193,VALID,159,VALID,1.28516,
2009-12-23, 00:04:04,VALID,917.939,VALID,0,VALID,85.6338,VALID,0,VALID,21.2795,VALID,169,VALID,1.96016,
2009-12-23, 00:05:04,VALID,917.965,VALID,0,VALID,85.4814,VALID,0,VALID,21.3185,VALID,174,VALID,2.1043,
2009-12-23, 00:06:04,VALID,917.969,VALID,0,VALID,85.4356,VALID,0,VALID,21.3185,VALID,156,VALID,1.8293,
2009-12-23, 00:07:04,VALID,917.97,VALID,0,VALID,85.8244,VALID,0,VALID,21.338,VALID,176,VALID,1.0957,
2009-12-23, 00:08:04,VALID,917.876,VALID,0,VALID,85.7939,VALID,0,VALID,21.338,VALID,196,VALID,0.941797,
2009-12-23, 00:09:04,VALID,917.89,VALID,0,VALID,85.7939,VALID,0,VALID,21.3185,VALID,196,VALID,1.62266,
2009-12-23, 00:10:04,VALID,917.854,VALID,0,VALID,85.7253,VALID,0,VALID,21.338,VALID,189,VALID,1.42734,
2009-12-23, 00:11:04,VALID,917.848,VALID,0,VALID,85.9388,VALID,0,VALID,21.3185,VALID,163,VALID,1.48359,
2009-12-23, 00:12:04,VALID,917.843,VALID,0,VALID,85.7177,VALID,0,VALID,21.299,VALID,180,VALID,2.19375,
2009-12-23, 00:13:04,VALID,917.82,VALID,0,VALID,85.5271,VALID,0,VALID,21.3185,VALID,163,VALID,1.86953,
2009-12-23, 00:14:04,VALID,917.839,VALID,0,VALID,85.5805,VALID,0,VALID,21.3575,VALID,174,VALID,1.90469,
2009-12-23, 00:15:04,VALID,917.83,VALID,0,VALID,85.9616,VALID,0,VALID,21.3575,VALID,144,VALID,1.20859,
2009-12-23, 00:16:04,VALID,917.801,VALID,0,VALID,85.9921,VALID,0,VALID,21.3185,VALID,153,VALID,1.31914,
2009-12-23, 00:17:04,VALID,917.776,VALID,0,VALID,85.832,VALID,0,VALID,21.338,VALID,172,VALID,2.01914,
2009-12-23, 00:18:04,VALID,917.743,VALID,0,VALID,85.8702,VALID,0,VALID,21.3575,VALID,187,VALID,0.76875,
2009-12-23, 00:19:04,VALID,917.764,VALID,0,VALID,85.7024,VALID,0,VALID,21.3169,VALID,167,VALID,1.59336,
2009-12-23, 00:20:04,VALID,917.759,VALID,0,VALID,85.3289,VALID,0,VALID,21.377,VALID,162,VALID,1.72344,
2009-12-23, 00:21:04,VALID,917.7,VALID,0,VALID,84.8639,VALID,0,VALID,21.416,VALID,156,VALID,1.89766,
2009-12-23, 00:22:04,VALID,917.633,VALID,0,VALID,85.2298,VALID,0,VALID,21.4355,VALID,182,VALID,1.04648,
2009-12-23, 00:23:04,VALID,917.631,VALID,0,VALID,85.3899,VALID,0,VALID,21.4355,VALID,152,VALID,1.28164,
2009-12-23, 00:24:04,VALID,917.615,VALID,0,VALID,85.3823,VALID,0,VALID,21.416,VALID,179,VALID,1.33789,
2009-12-23, 00:25:04,VALID,917.617,VALID,0,VALID,85.6186,VALID,0,VALID,21.416,VALID,190,VALID,1.33125,
2009-12-23, 00:26:04,VALID,917.592,VALID,0,VALID,85.3365,VALID,0,VALID,21.416,VALID,175,VALID,1.92344,
2009-12-23, 00:27:04,VALID,917.581,VALID,0,VALID,85.6338,VALID,0,VALID,21.3965,VALID,141,VALID,0.728125,
2009-12-23, 00:28:04,VALID,917.557,VALID,0,VALID,85.893,VALID,0,VALID,21.3575,VALID,132,VALID,0.878516,
2009-12-23, 00:29:04,VALID,917.53,VALID,0,VALID,85.5881,VALID,0,VALID,21.3575,VALID,170,VALID,1.31172,
2009-12-23, 00:30:04,VALID,917.559,VALID,0,VALID,85.7253,VALID,0,VALID,21.377,VALID,167,VALID,1.43398,
2009-12-23, 00:31:04,VALID,917.537,VALID,0,VALID,85.1307,VALID,0.107441,VALID,21.416,VALID,180,VALID,1.52461,
2009-12-23, 00:32:04,VALID,917.53,VALID,0,VALID,85.0926,VALID,0,VALID,21.4355,VALID,158,VALID,1.36602,
2009-12-23, 00:33:04,VALID,917.501,VALID,0,VALID,85.5042,VALID,0,VALID,21.4339,VALID,129,VALID,1.51602,
2009-12-23, 00:34:04,VALID,917.476,VALID,0,VALID,84.7038,VALID,0,VALID,21.4144,VALID,174,VALID,2.2582,
2009-12-23, 00:35:04,VALID,917.433,VALID,0,VALID,85.0545,VALID,0,VALID,21.455,VALID,159,VALID,1.78828,
2009-12-23, 00:36:04,VALID,917.445,VALID,0,VALID,85.2603,VALID,0,VALID,21.455,VALID,137,VALID,1.46133,
2009-12-23, 00:37:04,VALID,917.427,VALID,0,VALID,84.9401,VALID,0,VALID,21.4144,VALID,154,VALID,1.80898,
2009-12-23, 00:38:04,VALID,917.429,VALID,0,VALID,85.2603,VALID,0,VALID,21.455,VALID,87,VALID,1.75195,
2009-12-23, 00:39:04,VALID,917.438,VALID,0,VALID,84.9553,VALID,0,VALID,21.455,VALID,154,VALID,1.11953,
2009-12-23, 00:40:04,VALID,917.401,VALID,0,VALID,85.024,VALID,0,VALID,21.4746,VALID,149,VALID,0.699219,
2009-12-23, 00:41:04,VALID,917.372,VALID,0,VALID,84.7419,VALID,0,VALID,21.4534,VALID,185,VALID,1.80195,
2009-12-23, 00:42:04,VALID,917.371,VALID,0,VALID,84.8029,VALID,0,VALID,21.4534,VALID,197,VALID,1.33867,
2009-12-23, 00:43:04,VALID,917.363,VALID,0,VALID,84.5361,VALID,0.107441,VALID,21.5136,VALID,142,VALID,1.9918,
2009-12-23, 00:44:04,VALID,917.339,VALID,0,VALID,84.9553,VALID,0,VALID,21.4924,VALID,119,VALID,0.829297,
2009-12-23, 00:45:04,VALID,917.337,VALID,0,VALID,85.1002,VALID,0,VALID,21.4941,VALID,119,VALID,1.01992,
2009-12-23, 00:46:04,VALID,917.328,VALID,0,VALID,84.8791,VALID,0,VALID,21.4746,VALID,185,VALID,1.22578,
2009-12-23, 00:47:04,VALID,917.305,VALID,0,VALID,84.8486,VALID,0,VALID,21.4534,VALID,165,VALID,1.32617,
2009-12-23, 00:48:04,VALID,917.332,VALID,0,VALID,84.9325,VALID,0,VALID,21.4941,VALID,146,VALID,1.2625,
2009-12-23, 00:49:04,VALID,917.29,VALID,0,VALID,85.0087,VALID,0,VALID,21.4941,VALID,146,VALID,0.608984,
2009-12-23, 00:50:04,VALID,917.238,VALID,0,VALID,84.5284,VALID,0,VALID,21.4746,VALID,157,VALID,1.61875,
2009-12-23, 00:51:04,VALID,917.231,VALID,0,VALID,84.6962,VALID,0,VALID,21.4941,VALID,190,VALID,1.38516,
2009-12-23, 00:52:04,VALID,917.239,VALID,0,VALID,85.2603,VALID,0,VALID,21.4941,VALID,200,VALID,1.19531,
2009-12-23, 00:53:04,VALID,917.228,VALID,0,VALID,84.6657,VALID,0,VALID,21.4746,VALID,159,VALID,1.41406,
2009-12-23, 00:54:04,VALID,917.261,VALID,0,VALID,85.4509,VALID,0,VALID,21.455,VALID,167,VALID,1.30117,
2009-12-23, 00:55:04,VALID,917.266,VALID,0,VALID,85.1612,VALID,0,VALID,21.455,VALID,155,VALID,1.7543,
2009-12-23, 00:56:04,VALID,917.311,VALID,0,VALID,85.5119,VALID,0,VALID,21.4355,VALID,148,VALID,0.736328,
2009-12-23, 00:57:04,VALID,917.25,VALID,0,VALID,85.3975,VALID,0,VALID,21.4355,VALID,150,VALID,1.03477,
2009-12-23, 00:58:04,VALID,917.275,VALID,0,VALID,85.4585,VALID,0,VALID,21.416,VALID,163,VALID,0.633594,
2009-12-23, 00:59:04,VALID,917.246,VALID,0,VALID,85.5728,VALID,0,VALID,21.4355,VALID,163,VALID,0.711328,
2009-12-23, 01:00:04,VALID,917.269,VALID,0,VALID,85.6186,VALID,0,VALID,21.416,VALID,169,VALID,1.3,
2009-12-23, 01:01:04,VALID,917.207,VALID,0,VALID,85.0621,VALID,0,VALID,21.416,VALID,165,VALID,1.58164,
2009-12-23, 01:02:04,VALID,917.195,VALID,0,VALID,85.4966,VALID,0,VALID,21.416,VALID,165,VALID,1.0668,
2009-12-23, 01:03:04,VALID,917.179,VALID,0,VALID,85.5576,VALID,0,VALID,21.416,VALID,165,VALID,0.842969,
2009-12-23, 01:04:04,VALID,917.172,VALID,0,VALID,85.6262,VALID,0,VALID,21.3965,VALID,165,VALID,0.786719,
2009-12-23, 01:05:04,VALID,917.144,VALID,0,VALID,85.5119,VALID,0,VALID,21.3949,VALID,165,VALID,0.907031,
2009-12-23, 01:06:04,VALID,917.129,VALID,0,VALID,85.1688,VALID,0.107441,VALID,21.416,VALID,170,VALID,1.21719,
2009-12-23, 01:07:04,VALID,917.135,VALID,0,VALID,85.4051,VALID,0,VALID,21.4355,VALID,188,VALID,1.34687,
2009-12-23, 01:08:04,VALID,917.111,VALID,0,VALID,85.55,VALID,0,VALID,21.4355,VALID,196,VALID,0.74375,
2009-12-23, 01:09:04,VALID,917.098,VALID,0,VALID,85.4661,VALID,0,VALID,21.4355,VALID,196,VALID,1.14453,
2009-12-23, 01:10:04,VALID,917.072,VALID,0,VALID,85.3213,VALID,0,VALID,21.4355,VALID,196,VALID,0.588281,
2009-12-23, 01:11:04,VALID,917.063,VALID,0,VALID,85.2984,VALID,0,VALID,21.4567,VALID,171,VALID,1.57656,
2009-12-23, 01:12:04,VALID,917.071,VALID,0,VALID,85.1383,VALID,0,VALID,21.455,VALID,154,VALID,1.1957,
2009-12-23, 01:13:04,VALID,917.044,VALID,0,VALID,85.1078,VALID,0,VALID,21.455,VALID,179,VALID,1.13594,
2009-12-23, 01:14:04,VALID,917.031,VALID,0,VALID,84.8029,VALID,0,VALID,21.4941,VALID,147,VALID,2.71641,
2009-12-23, 01:15:04,VALID,917.044,VALID,0,VALID,84.8944,VALID,0,VALID,21.5136,VALID,184,VALID,0.903516,
2009-12-23, 01:16:04,VALID,917.005,VALID,0,VALID,84.7343,VALID,0,VALID,21.5136,VALID,145,VALID,1.14883,
2009-12-23, 01:17:04,VALID,916.975,VALID,0,VALID,85.0468,VALID,0,VALID,21.5136,VALID,149,VALID,0.929688,
2009-12-23, 01:18:04,VALID,916.968,VALID,0,VALID,84.9401,VALID,0,VALID,21.5136,VALID,153,VALID,1.39727,
2009-12-23, 01:19:04,VALID,916.933,VALID,0,VALID,85.1841,VALID,0,VALID,21.4941,VALID,153,VALID,1.22109,
2009-12-23, 01:20:04,VALID,916.905,VALID,0,VALID,85.245,VALID,0,VALID,21.4941,VALID,169,VALID,1.31172,
2009-12-23, 01:21:04,VALID,916.908,VALID,0,VALID,85.2222,VALID,0,VALID,21.4746,VALID,154,VALID,1.37227,
2009-12-23, 01:22:04,VALID,916.883,VALID,0,VALID,85.5424,VALID,0,VALID,21.455,VALID,154,VALID,1.15039,
2009-12-23, 01:23:04,VALID,916.862,VALID,0,VALID,85.9464,VALID,0,VALID,21.455,VALID,167,VALID,1.7707,
2009-12-23, 01:24:04,VALID,916.807,VALID,0,VALID,85.6643,VALID,0,VALID,21.4355,VALID,165,VALID,1.20977,
2009-12-23, 01:25:04,VALID,916.841,VALID,0,VALID,85.4051,VALID,0,VALID,21.4355,VALID,152,VALID,1.17031,
2009-12-23, 01:26:04,VALID,916.762,VALID,0,VALID,85.2755,VALID,0,VALID,21.4355,VALID,142,VALID,2.03594,
2009-12-23, 01:27:04,VALID,916.788,VALID,0,VALID,85.5042,VALID,0,VALID,21.4355,VALID,141,VALID,1.51289,
2009-12-23, 01:28:04,VALID,916.758,VALID,0,VALID,85.7101,VALID,0,VALID,21.4355,VALID,148,VALID,1.78398,
2009-12-23, 01:29:04,VALID,916.758,VALID,0,VALID,85.7024,VALID,0,VALID,21.4355,VALID,171,VALID,1.11094,
2009-12-23, 01:30:04,VALID,916.726,VALID,0,VALID,85.7939,VALID,0,VALID,21.416,VALID,72,VALID,1.95313,
2009-12-23, 01:31:04,VALID,916.734,VALID,0,VALID,85.6872,VALID,0,VALID,21.3949,VALID,165,VALID,1.69062,
2009-12-23, 01:32:04,VALID,916.719,VALID,0,VALID,85.9464,VALID,0,VALID,21.416,VALID,159,VALID,1.0875,
2009-12-23, 01:33:04,VALID,916.747,VALID,0,VALID,86.1065,VALID,0,VALID,21.3965,VALID,123,VALID,2.1668,
2009-12-23, 01:34:04,VALID,916.787,VALID,0,VALID,85.9845,VALID,0,VALID,21.3575,VALID,135,VALID,2.30195,
2009-12-23, 01:35:04,VALID,916.79,VALID,0,VALID,86.0226,VALID,0,VALID,21.377,VALID,138,VALID,2.0918,
2009-12-23, 01:36:04,VALID,916.813,VALID,0,VALID,86.1217,VALID,0,VALID,21.3559,VALID,170,VALID,1.20352,
2009-12-23, 01:37:04,VALID,916.789,VALID,0,VALID,85.8702,VALID,0,VALID,21.377,VALID,161,VALID,1.68984,
2009-12-23, 01:38:04,VALID,916.782,VALID,0,VALID,85.7863,VALID,0,VALID,21.3965,VALID,181,VALID,1.71016,
2009-12-23, 01:39:04,VALID,916.777,VALID,0,VALID,85.9998,VALID,0,VALID,21.416,VALID,172,VALID,1.19844,
2009-12-23, 01:40:04,VALID,916.788,VALID,0,VALID,85.9921,VALID,0,VALID,21.416,VALID,171,VALID,1.14102,
2009-12-23, 01:41:04,VALID,916.83,VALID,0,VALID,85.3594,VALID,0,VALID,21.416,VALID,148,VALID,1.93906,
2009-12-23, 01:42:04,VALID,916.812,VALID,0,VALID,85.7253,VALID,0,VALID,21.4355,VALID,172,VALID,1.71836,
2009-12-23, 01:43:04,VALID,916.74,VALID,0,VALID,85.7024,VALID,0,VALID,21.4355,VALID,140,VALID,2.24688,
2009-12-23, 01:44:04,VALID,916.737,VALID,0,VALID,85.4204,VALID,0,VALID,21.416,VALID,155,VALID,1.38867,
2009-12-23, 01:45:04,VALID,916.739,VALID,0,VALID,85.5042,VALID,0,VALID,21.4355,VALID,182,VALID,1.87148,
2009-12-23, 01:46:04,VALID,916.691,VALID,0,VALID,85.4204,VALID,0,VALID,21.455,VALID,153,VALID,1.66562,
2009-12-23, 01:47:04,VALID,916.69,VALID,0,VALID,85.5576,VALID,0,VALID,21.4746,VALID,151,VALID,0.850391,
2009-12-23, 01:48:04,VALID,916.672,VALID,0,VALID,85.7787,VALID,0,VALID,21.4534,VALID,201,VALID,0.430078,
2009-12-23, 01:49:04,VALID,916.651,VALID,0,VALID,85.8625,VALID,0,VALID,21.4355,VALID,172,VALID,1.04219,
2009-12-23, 01:50:04,VALID,916.663,VALID,0,VALID,85.7177,VALID,0,VALID,21.4355,VALID,138,VALID,0.922656,
2009-12-23, 01:51:04,VALID,916.649,VALID,0,VALID,85.8702,VALID,0,VALID,21.416,VALID,138,VALID,0.401172,
2009-12-23, 01:52:04,VALID,916.632,VALID,0,VALID,85.8549,VALID,0,VALID,21.377,VALID,138,VALID,1.06016,
2009-12-23, 01:53:04,VALID,916.571,VALID,0,VALID,85.8625,VALID,0,VALID,21.3965,VALID,138,VALID,0.620313,
2009-12-23, 01:54:04,VALID,916.567,VALID,0,VALID,86.1065,VALID,0,VALID,21.3965,VALID,138,VALID,0.824609,
2009-12-23, 01:55:04,VALID,916.535,VALID,0,VALID,85.9769,VALID,0,VALID,21.377,VALID,138,VALID,0.857031,
2009-12-23, 01:56:04,VALID,916.538,VALID,0,VALID,86.1141,VALID,0.107441,VALID,21.377,VALID,158,VALID,1.04141,
2009-12-23, 01:57:04,VALID,916.472,VALID,0,VALID,86.1675,VALID,0,VALID,21.377,VALID,142,VALID,0.901953,
2009-12-23, 01:58:04,VALID,916.442,VALID,0,VALID,86.2971,VALID,0,VALID,21.3364,VALID,142,VALID,0.580078,
2009-12-23, 01:59:04,VALID,916.423,VALID,0,VALID,86.2132,VALID,0,VALID,21.338,VALID,142,VALID,0.727344,
2009-12-23, 02:00:04,VALID,916.405,VALID,0,VALID,86.5715,VALID,0,VALID,21.3169,VALID,142,VALID,0.247656,
2009-12-23, 02:01:04,VALID,916.377,VALID,0,VALID,86.4572,VALID,0,VALID,21.3169,VALID,142,VALID,0,
2009-12-23, 02:02:04,VALID,916.418,VALID,0,VALID,86.7392,VALID,0,VALID,21.3185,VALID,142,VALID,0.541406,
2009-12-23, 02:03:04,VALID,916.414,VALID,0,VALID,86.48,VALID,0.107441,VALID,21.2779,VALID,142,VALID,0.526172,
2009-12-23, 02:04:04,VALID,916.399,VALID,0,VALID,86.785,VALID,0.107441,VALID,21.2779,VALID,142,VALID,0.755078,
2009-12-23, 02:05:04,VALID,916.421,VALID,0,VALID,87.0365,VALID,0.107441,VALID,21.299,VALID,178,VALID,1.02344,
2009-12-23, 02:06:04,VALID,916.398,VALID,0,VALID,86.8688,VALID,0,VALID,21.2795,VALID,190,VALID,1.44023,
2009-12-23, 02:07:04,VALID,916.401,VALID,0,VALID,86.8841,VALID,0.107441,VALID,21.2584,VALID,190,VALID,0.526172,
2009-12-23, 02:08:04,VALID,916.408,VALID,0,VALID,86.8383,VALID,0.107441,VALID,21.2389,VALID,153,VALID,1.27461,
2009-12-23, 02:09:04,VALID,916.412,VALID,0,VALID,86.724,VALID,0.107441,VALID,21.2389,VALID,120,VALID,1.51484,
2009-12-23, 02:10:04,VALID,916.422,VALID,0,VALID,86.9984,VALID,0.107441,VALID,21.2389,VALID,141,VALID,1.25156,
2009-12-23, 02:11:04,VALID,916.424,VALID,0,VALID,87.1814,VALID,0,VALID,21.2389,VALID,160,VALID,1.23008,
2009-12-23, 02:12:04,VALID,916.448,VALID,0,VALID,87.3491,VALID,0.107441,VALID,21.1998,VALID,175,VALID,1.4125,
2009-12-23, 02:13:04,VALID,916.449,VALID,0,VALID,87.5016,VALID,0.107441,VALID,21.1998,VALID,165,VALID,0.398828,
2009-12-23, 02:14:04,VALID,916.5,VALID,0,VALID,87.5626,VALID,0,VALID,21.1592,VALID,211,VALID,0.927734,
2009-12-23, 02:15:04,VALID,916.479,VALID,0,VALID,87.8904,VALID,0.107441,VALID,21.1608,VALID,211,VALID,0.899609,
2009-12-23, 02:16:04,VALID,916.482,VALID,0,VALID,87.7913,VALID,0,VALID,21.1624,VALID,157,VALID,1.48828,
2009-12-23, 02:17:04,VALID,916.513,VALID,0,VALID,87.2881,VALID,0,VALID,21.1624,VALID,149,VALID,1.62461,
2009-12-23, 02:18:04,VALID,916.54,VALID,0,VALID,86.9298,VALID,0,VALID,21.2405,VALID,92,VALID,0.727344,
2009-12-23, 02:19:04,VALID,916.552,VALID,0,VALID,86.7697,VALID,0,VALID,21.2795,VALID,92,VALID,1.14844,
2009-12-23, 02:20:04,VALID,916.537,VALID,0,VALID,86.846,VALID,0,VALID,21.2795,VALID,92,VALID,0.803516,
2009-12-23, 02:21:04,VALID,916.556,VALID,0,VALID,86.6172,VALID,0,VALID,21.3006,VALID,110,VALID,1.38008,
2009-12-23, 02:22:04,VALID,916.588,VALID,0,VALID,86.7545,VALID,0,VALID,21.299,VALID,131,VALID,1.26211,
2009-12-23, 02:23:04,VALID,916.581,VALID,0,VALID,86.8155,VALID,0,VALID,21.3006,VALID,131,VALID,1.18828,
2009-12-23, 02:24:04,VALID,916.551,VALID,0,VALID,87.4101,VALID,0,VALID,21.2584,VALID,131,VALID,0.720703,
2009-12-23, 02:25:04,VALID,916.542,VALID,0,VALID,86.8383,VALID,0,VALID,21.2405,VALID,155,VALID,1.97656,
2009-12-23, 02:26:04,VALID,916.557,VALID,0,VALID,86.8764,VALID,0,VALID,21.2811,VALID,181,VALID,1.48633,
2009-12-23, 02:27:04,VALID,916.535,VALID,0,VALID,87.1204,VALID,0,VALID,21.2795,VALID,191,VALID,0.755469,
2009-12-23, 02:28:04,VALID,916.515,VALID,0,VALID,87.2805,VALID,0,VALID,21.26,VALID,191,VALID,0.839453,
2009-12-23, 02:29:04,VALID,916.499,VALID,0,VALID,86.9222,VALID,0,VALID,21.26,VALID,191,VALID,1.09258,
2009-12-23, 02:30:04,VALID,916.481,VALID,0,VALID,87.1509,VALID,0,VALID,21.26,VALID,191,VALID,0.580469,
2009-12-23, 02:31:04,VALID,916.456,VALID,0,VALID,87.2729,VALID,0,VALID,21.26,VALID,138,VALID,1.98945,
2009-12-23, 02:32:04,VALID,916.456,VALID,0,VALID,87.372,VALID,0,VALID,21.2405,VALID,144,VALID,1.66445,
2009-12-23, 02:33:04,VALID,916.432,VALID,0,VALID,87.2729,VALID,0,VALID,21.2421,VALID,154,VALID,0.897656,
2009-12-23, 02:34:04,VALID,916.489,VALID,0,VALID,87.6617,VALID,0,VALID,21.2015,VALID,173,VALID,1.09883,
2009-12-23, 02:35:04,VALID,916.468,VALID,0,VALID,87.5397,VALID,0,VALID,21.1819,VALID,148,VALID,1.55273,
2009-12-23, 02:36:04,VALID,916.474,VALID,0,VALID,87.9209,VALID,0,VALID,21.1819,VALID,135,VALID,0.915234,
2009-12-23, 02:37:04,VALID,916.458,VALID,0,VALID,87.9056,VALID,0,VALID,21.1819,VALID,156,VALID,1.04258,
2009-12-23, 02:38:04,VALID,916.471,VALID,0,VALID,88.0123,VALID,0,VALID,21.1429,VALID,162,VALID,1.11953,
2009-12-23, 02:39:04,VALID,916.448,VALID,0,VALID,87.9132,VALID,0,VALID,21.1429,VALID,209,VALID,1.20156,
2009-12-23, 02:40:04,VALID,916.48,VALID,0,VALID,88.0809,VALID,0,VALID,21.1445,VALID,154,VALID,1.03945,
2009-12-23, 02:41:04,VALID,916.479,VALID,0,VALID,87.8141,VALID,0,VALID,21.1234,VALID,162,VALID,1.84727,
2009-12-23, 02:42:04,VALID,916.499,VALID,0,VALID,87.8446,VALID,0,VALID,21.1624,VALID,146,VALID,1.05195,
2009-12-23, 02:43:04,VALID,916.484,VALID,0,VALID,87.7836,VALID,0,VALID,21.1836,VALID,146,VALID,1.53906,
2009-12-23, 02:44:04,VALID,916.47,VALID,0,VALID,87.593,VALID,0,VALID,21.1429,VALID,146,VALID,1.17891,
2009-12-23, 02:45:04,VALID,916.419,VALID,0,VALID,87.593,VALID,0,VALID,21.1819,VALID,146,VALID,1.21094,
2009-12-23, 02:46:04,VALID,916.4,VALID,0,VALID,87.6083,VALID,0,VALID,21.1819,VALID,146,VALID,1.28984,
2009-12-23, 02:47:04,VALID,916.38,VALID,0,VALID,87.6159,VALID,0,VALID,21.2031,VALID,146,VALID,1.13594,
2009-12-23, 02:48:04,VALID,916.403,VALID,0,VALID,87.9209,VALID,0,VALID,21.1624,VALID,154,VALID,1.18008,
2009-12-23, 02:49:04,VALID,916.349,VALID,0,VALID,87.7379,VALID,0,VALID,21.1624,VALID,160,VALID,1.26016,
2009-12-23, 02:50:04,VALID,916.316,VALID,0,VALID,88.0276,VALID,0,VALID,21.1624,VALID,144,VALID,1.76523,
2009-12-23, 02:51:04,VALID,916.313,VALID,0,VALID,87.8751,VALID,0,VALID,21.1624,VALID,186,VALID,1.25039,
2009-12-23, 02:52:04,VALID,916.302,VALID,0,VALID,87.837,VALID,0,VALID,21.1624,VALID,204,VALID,1.31328,
2009-12-23, 02:53:04,VALID,916.283,VALID,0,VALID,87.6922,VALID,0,VALID,21.1836,VALID,174,VALID,1.44023,
2009-12-23, 02:54:04,VALID,916.268,VALID,0,VALID,87.6617,VALID,0,VALID,21.1819,VALID,150,VALID,0.95625,
2009-12-23, 02:55:04,VALID,916.219,VALID,0,VALID,87.6159,VALID,0,VALID,21.1836,VALID,154,VALID,1.40625,
2009-12-23, 02:56:04,VALID,916.202,VALID,0,VALID,87.7531,VALID,0,VALID,21.1624,VALID,142,VALID,0.978906,
2009-12-23, 02:57:04,VALID,916.198,VALID,0,VALID,87.9666,VALID,0,VALID,21.1429,VALID,129,VALID,0.715625,
2009-12-23, 02:58:04,VALID,916.26,VALID,0,VALID,88.2258,VALID,0,VALID,21.1429,VALID,136,VALID,1.13125,
2009-12-23, 02:59:04,VALID,916.251,VALID,0,VALID,88.302,VALID,0,VALID,21.1039,VALID,175,VALID,1.02422,
2009-12-23, 03:00:04,VALID,916.226,VALID,0,VALID,88.4926,VALID,0,VALID,21.0844,VALID,168,VALID,1,
2009-12-23, 03:01:04,VALID,916.213,VALID,0,VALID,88.2868,VALID,0,VALID,21.0649,VALID,154,VALID,1.47617,
2009-12-23, 03:02:04,VALID,916.208,VALID,0,VALID,88.1267,VALID,0,VALID,21.0844,VALID,160,VALID,2.10117,
2009-12-23, 03:03:04,VALID,916.183,VALID,0,VALID,87.9895,VALID,0,VALID,21.0844,VALID,145,VALID,1.74219,
2009-12-23, 03:04:04,VALID,916.21,VALID,0,VALID,87.8827,VALID,0,VALID,21.1039,VALID,147,VALID,2.67383,
2009-12-23, 03:05:04,VALID,916.194,VALID,0,VALID,87.898,VALID,0,VALID,21.1234,VALID,141,VALID,1.93125,
2009-12-23, 03:06:04,VALID,916.24,VALID,0,VALID,87.8904,VALID,0,VALID,21.1429,VALID,167,VALID,2.67734,
2009-12-23, 03:07:04,VALID,916.265,VALID,0,VALID,87.9818,VALID,0,VALID,21.1023,VALID,140,VALID,1.12695,
2009-12-23, 03:08:04,VALID,916.199,VALID,0,VALID,87.8751,VALID,0,VALID,21.1429,VALID,158,VALID,3.20352,
2009-12-23, 03:09:04,VALID,916.164,VALID,0,VALID,88.1038,VALID,0,VALID,21.1429,VALID,153,VALID,2.0957,
2009-12-23, 03:10:04,VALID,916.185,VALID,0,VALID,88.0657,VALID,0,VALID,21.1234,VALID,141,VALID,1.51094,
2009-12-23, 03:11:04,VALID,916.214,VALID,0,VALID,88.0505,VALID,0,VALID,21.1234,VALID,151,VALID,1.66719,
2009-12-23, 03:12:04,VALID,916.207,VALID,0,VALID,88.0047,VALID,0,VALID,21.1234,VALID,156,VALID,2.20625,
2009-12-23, 03:13:04,VALID,916.182,VALID,0,VALID,88.0047,VALID,0,VALID,21.1445,VALID,157,VALID,2.01641,
2009-12-23, 03:14:04,VALID,916.188,VALID,0,VALID,88.1114,VALID,0,VALID,21.1234,VALID,145,VALID,1.4625,
2009-12-23, 03:15:04,VALID,916.151,VALID,0,VALID,88.0581,VALID,0,VALID,21.1234,VALID,169,VALID,1.49805,
2009-12-23, 03:16:04,VALID,916.119,VALID,0,VALID,88.2715,VALID,0,VALID,21.1039,VALID,135,VALID,1.4375,
2009-12-23, 03:17:04,VALID,916.143,VALID,0,VALID,88.2563,VALID,0,VALID,21.0844,VALID,119,VALID,0.995313,
2009-12-23, 03:18:04,VALID,916.121,VALID,0,VALID,88.4316,VALID,0,VALID,21.0844,VALID,147,VALID,1.08203,
2009-12-23, 03:19:04,VALID,916.064,VALID,0,VALID,88.3554,VALID,0,VALID,21.0844,VALID,186,VALID,0.966797,
2009-12-23, 03:20:04,VALID,916.089,VALID,0,VALID,88.3478,VALID,0,VALID,21.0844,VALID,132,VALID,1.33047,
2009-12-23, 03:21:04,VALID,916.083,VALID,0,VALID,88.3783,VALID,0,VALID,21.0649,VALID,160,VALID,1.16797,
2009-12-23, 03:22:04,VALID,916.08,VALID,0,VALID,88.3097,VALID,0,VALID,21.0649,VALID,134,VALID,1.81055,
2009-12-23, 03:23:04,VALID,916.067,VALID,0,VALID,88.4164,VALID,0,VALID,21.0454,VALID,149,VALID,1.29531,
2009-12-23, 03:24:04,VALID,916.039,VALID,0,VALID,88.1038,VALID,0.107441,VALID,21.0649,VALID,135,VALID,1.68242,
2009-12-23, 03:25:04,VALID,916.031,VALID,0,VALID,88.2182,VALID,0,VALID,21.0844,VALID,123,VALID,1.34766,
2009-12-23, 03:26:04,VALID,916.054,VALID,0,VALID,88.2334,VALID,0,VALID,21.0649,VALID,152,VALID,1.33555,
2009-12-23, 03:27:04,VALID,916.009,VALID,0,VALID,87.8446,VALID,0,VALID,21.086,VALID,128,VALID,2.09766,
2009-12-23, 03:28:04,VALID,916.005,VALID,0,VALID,87.9818,VALID,0,VALID,21.1039,VALID,122,VALID,0.926953,
2009-12-23, 03:29:04,VALID,915.99,VALID,0,VALID,87.776,VALID,0,VALID,21.1055,VALID,150,VALID,1.35195,
2009-12-23, 03:30:04,VALID,915.992,VALID,0,VALID,87.6312,VALID,0,VALID,21.0844,VALID,148,VALID,1.72187,
2009-12-23, 03:31:04,VALID,915.973,VALID,0,VALID,87.6007,VALID,0,VALID,21.1039,VALID,159,VALID,1.25469,
2009-12-23, 03:32:04,VALID,915.932,VALID,0,VALID,87.5473,VALID,0,VALID,21.1039,VALID,172,VALID,1.09219,
2009-12-23, 03:33:04,VALID,915.928,VALID,0,VALID,87.5473,VALID,0,VALID,21.1234,VALID,153,VALID,1.1125,
2009-12-23, 03:34:04,VALID,915.935,VALID,0,VALID,87.7531,VALID,0,VALID,21.1234,VALID,153,VALID,0.789063,
2009-12-23, 03:35:04,VALID,915.922,VALID,0,VALID,88.0428,VALID,0,VALID,21.0844,VALID,170,VALID,1.15469,
2009-12-23, 03:36:04,VALID,915.936,VALID,0,VALID,88.2029,VALID,0,VALID,21.0454,VALID,167,VALID,1.30625,
2009-12-23, 03:37:04,VALID,915.94,VALID,0,VALID,88.2029,VALID,0,VALID,21.0259,VALID,159,VALID,1.87773,
2009-12-23, 03:38:04,VALID,915.968,VALID,0,VALID,88.5384,VALID,0,VALID,21.0259,VALID,171,VALID,1.55664,
2009-12-23, 03:39:04,VALID,915.959,VALID,0,VALID,88.7594,VALID,0,VALID,20.9674,VALID,186,VALID,1.61602,
2009-12-23, 03:40:04,VALID,915.939,VALID,0,VALID,88.9043,VALID,0,VALID,20.9479,VALID,158,VALID,1.86133,
2009-12-23, 03:41:04,VALID,915.917,VALID,0,VALID,89.1177,VALID,0,VALID,20.9284,VALID,158,VALID,2.01484,
2009-12-23, 03:42:04,VALID,915.916,VALID,0,VALID,89.2016,VALID,0,VALID,20.8894,VALID,133,VALID,2.17383,
2009-12-23, 03:43:04,VALID,915.969,VALID,0,VALID,89.3236,VALID,0,VALID,20.8894,VALID,144,VALID,1.84375,
2009-12-23, 03:44:04,VALID,915.987,VALID,0,VALID,89.415,VALID,0,VALID,20.891,VALID,95,VALID,1.31289,
2009-12-23, 03:45:04,VALID,915.981,VALID,0,VALID,89.5142,VALID,0,VALID,20.8699,VALID,130,VALID,1.28398,